STARLINK-1237, 45192

Orbit data source: Space-Track

STARLINK-1237, 45192 is a payload satellite owned by SpaceX/Seattle (US) in LEO that was launched on Mon, 17 Feb 2020 UTC via an FALCON 9 launch vehicle from the Air Force Eastern Test Range (AFETR). Payloads include a variety of satellites, spacecraft, and rockets equipped with specific instruments for various scientific and technological missions. These include communications satellites like Starlink; space stations such as the ISS; scientific satellites like the Hubble; Earth observation satellites from companies like Planet Labs, Umbra, and HawkEye 360; GPS; miniature CubeSats for education and research; and military/defense satellites.

Loading next visibility...
STARLINK-1237 details
Identifier
45192, 2020-012Q
Orbit
LEO
Last TLE update13 hours ago
Origin
Flag of USSpaceX/Seattle (US)
ManufacturerSpaceX/Seattle
MissionOperational Commercial Communications
Bus & MotorSTARLINK, Unknown motor
Mass260 kg wet, ~248 kg dry
Launch date (UTC)
2020-02-17 (5 years ago)
Launch vehicle
FALCON 9
Launch site
Air Force Eastern Test Range (AFETR)
Object type
Payload
Rocket body
Debris
Shape & HBRBox + 1 Pan, 8.86 m
Radar Cross Section13.562 m², Large (>1 m²)

Expand to show TLE details & history

TLE from 13 hours ago
0 STARLINK-1237
1 45192U 20012Q   24361.28274396  .00002686  00000-0  19906-3 0  9993
2 45192  53.0534 214.7028 0001624  79.5259 280.5913 15.06412740267820
Epoch: 2024-12-26T06:47Z
Definitive object data (Epoch: 2024-12-26T06:47:09.078Z)
Latitude
Longitude17.65061°
Altitude547.845 km
Speed7.589 km/s
True Right ascension14h 18m 48s
True Declination0° 00' 00"
Sunlit
Object was in daylight at TLE epoch
Visualization TLE readout
Latitude43.29684°
Longitude60.02999°
Altitude550.421 km
Speed7.593 km/s
Apparent Right ascension12h 21m 52s
Apparent Declination14° 09' 28"
Sunlit
Object is in daylight
Visualization observer readout
Local Sidereal Time19:09:46
Azimuth288.461° WNW
Elevation0.154°
Doppler factor1
Orbital elements
Apogee altitude548.568 km
Perigee altitude546.319 km
Semi-major axis6,925.58 km
Eccentricity0.0001624
Inclination53.0534°
RAAN214.7028°
Arg. of periapsis79.5259°
True anomaly280.57301°
Mean anomaly280.5913°
Eccentric anomaly280.58215°
Mean motion3.76581 °/min
BSTAR0.00019906
Orbital period95.6 mins
Loading maneuver chart data...

STARLINK-1237 Visibility forecast

Observer location: undefined°, undefined

Span
Click to sort rows by Start time (UTC) header in descending order
Start Az.
Max El. time (UTC)
Max El. Az.
Max El.
End time (UTC)
End Az.
5 mins2024-12-26 23:12:02.947Z341.548° N2024-12-26 23:14:02.947Z36.901° NE30.502°2024-12-26 23:17:02.947Z94.989° ESE
6 mins2024-12-27 00:51:02.947Z282.06° WNW2024-12-27 00:53:02.947Z238.787° WSW29.281°2024-12-27 00:57:02.947Z162.387° S
6 mins2024-12-27 16:24:02.947Z192.945° SSW2024-12-27 16:26:02.947Z141.197° SSE34.079°2024-12-27 16:30:02.947Z62.501° ENE
5 mins2024-12-27 18:04:02.947Z287.171° WNW2024-12-27 18:06:02.947Z338.247° N27.455°2024-12-27 18:09:02.947Z32.028° NE
|